QPF
0.06 0.07 0.07 0.06 0.08 0.08 0.09 0.09 0.10 0.10 0.10 0.10 0.09 0.08 0.08 0.06 0.06 0.02 0.02 0.01 0.02 0.02 0.01 0.01 0.01 0.01 0.01 0.02 0.03 0.03 0.04 0.06 0.07 0.07 0.07 0.07 0.06 0.06
0.07 0.07 0.06 0.05 0.06 0.07 0.08 0.09 0.11 0.11 0.09 0.09 0.10 0.07 0.05 0.04 0.05 0.02 0.02 0.01 0.02 0.02 0.02 0.01 0.01 0.01 0.02 0.03 0.03 0.03 0.03 0.03 0.05 0.06 0.07 0.08 0.07 0.06
0.05 0.04 0.05 0.06 0.07 0.06 0.06 0.06 0.09 0.09 0.09 0.11 0.12 0.10 0.07 0.06 0.04 0.03 0.03 0.02 0.02 0.03 0.02 0.01 0.01 0.01 0.01 0.02 0.02 0.03 0.03 0.03 0.04 0.04 0.04 0.06 0.07 0.08
0.05 0.05 0.05 0.05 0.05 0.05 0.05 0.04 0.06 0.07 0.08 0.14 0.15 0.12 0.09 0.06 0.04 0.03 0.02 0.02 0.02 0.02 0.02 0.02 0.01 0.01 0.01 0.02 0.04 0.04 0.04 0.04 0.03 0.03 0.03 0.03 0.05 0.07
0.03 0.03 0.02 0.03 0.03 0.04 0.03 0.03 0.04 0.05 0.07 0.10 0.10 0.08 0.06 0.06 0.05 0.03 0.02 0.02 0.01 0.01 0.01 0.02 0.02 0.01 0.02 0.04 0.05 0.05 0.03 0.03 0.03 0.02 0.01 0.02 0.02 0.03
0.02 0.01 0.02 0.02 0.02 0.03 0.02 0.03 0.03 0.04 0.06 0.07 0.07 0.06 0.06 0.06 0.05 0.05 0.05 0.05 0.03 0.02 0.01 0.01 0.01 0.01 0.02 0.03 0.03 0.03 0.03 0.03 0.02 0.01 0.01 0.01 0.01 0.01
0.02 0.02 0.02 0.03 0.03 0.04 0.03 0.04 0.05 0.05 0.07 0.08 0.08 0.07 0.07 0.06 0.05 0.06 0.06 0.06 0.06 0.04 0.03 0.01 0.01 0.01 0.02 0.02 0.02 0.02 0.01 0.01 0.01 0.01 0.01 0.01 0.01 0.01
0.03 0.03 0.02 0.03 0.03 0.04 0.03 0.03 0.03 0.03 0.06 0.07 0.07 0.07 0.06 0.05 0.06 0.06 0.06 0.06 0.05 0.04 0.04 0.03 0.02 0.01 0.01 0.01 0.01 0.01 0.01 0.01 0.01 0.01 0.01 0.01 0.01 0.01
0.03 0.03 0.01 0.01 0.01 0.02 0.02 0.01 0.01 0.01 0.01 0.02 0.03 0.04 0.04 0.05 0.06 0.05 0.05 0.06 0.06 0.06 0.05 0.04 0.05 0.04 0.02 0.02 0.02 0.02 0.02 0.01 0.01 0.01 0.01 0.01 0.01 0.01
0.01 0.01 0.02 0.01 0.01 0.01 0.01 0.01 0.01 0.01 0.01 0.01 0.01 0.01 0.02 0.02 0.03 0.03 0.04 0.03 0.03 0.03 0.04 0.03 0.04 0.05 0.04 0.04 0.04 0.05 0.05 0.04 0.02 0.01 0.01 0.01 0.01 0.01
0.00 0.01 0.01 0.01 0.01 0.01 0.01 0.01 0.02 0.02 0.01 0.01 0.01 0.01 0.01 0.01 0.01 0.02 0.02 0.02 0.02 0.02 0.02 0.03 0.02 0.03 0.03 0.03 0.03 0.04 0.04 0.04 0.03 0.02 0.02 0.02 0.02 0.02
0.01 0.01 0.01 0.01 0.01 0.01 0.01 0.01 0.02 0.02 0.01 0.01 0.01 0.01 0.00 0.01 0.01 0.01 0.01 0.02 0.02 0.02 0.02 0.03 0.03 0.04 0.03 0.02 0.02 0.02 0.03 0.03 0.04 0.03 0.02 0.02 0.02 0.02
0.01 0.01 0.01 0.02 0.02 0.01 0.01 0.01 0.02 0.02 0.02 0.01 0.01 0.01 0.00 0.00 0.00 0.01 0.01 0.02 0.03 0.02 0.02 0.03 0.03 0.04 0.04 0.03 0.03 0.03 0.04 0.04 0.03 0.03 0.03 0.03 0.03 0.02
0.01 0.02 0.02 0.02 0.02 0.02 0.01 0.01 0.01 0.01 0.01 0.00 0.01 0.01 0.01 0.01 0.01 0.01 0.01 0.01 0.02 0.02 0.02 0.03 0.04 0.05 0.05 0.05 0.05 0.03 0.02 0.02 0.03 0.03 0.04 0.03 0.03 0.03
0.03 0.03 0.03 0.02 0.02 0.02 0.02 0.02 0.01 0.01 0.01 0.00 0.01 0.01 0.01 0.00 0.00 0.01 0.01 0.01 0.01 0.01 0.01 0.02 0.03 0.04 0.05 0.05 0.05 0.05 0.04 0.03 0.02 0.03 0.04 0.05 0.04 0.04
0.02 0.02 0.02 0.02 0.02 0.01 0.01 0.01 0.01 0.01 0.01 0.01 0.01 0.01 0.00 0.00 0.00 0.00 0.01 0.01 0.01 0.00 0.00 0.01 0.01 0.02 0.02 0.03 0.03 0.04 0.04 0.04 0.04 0.05 0.05 0.04 0.04 0.04
0.01 0.01 0.01 0.01 0.01 0.01 0.01 0.01 0.01 0.01 0.01 0.01 0.01 0.01 0.00 0.00 0.00 0.00 0.01 0.01 0.01 0.00 0.00 0.01 0.00 0.01 0.01 0.01 0.01 0.02 0.02 0.03 0.04 0.05 0.06 0.06 0.05 0.03
0.01 0.01 0.01 0.01 0.01 0.01 0.01 0.02 0.01 0.01 0.02 0.02 0.02 0.01 0.01 0.01 0.01 0.01 0.01 0.01 0.00 0.00 0.00 0.01 0.01 0.01 0.02 0.02 0.01 0.01 0.02 0.03 0.03 0.04 0.05 0.06 0.06 0.05
0.02 0.01 0.01 0.01 0.01 0.01 0.01 0.01 0.01 0.02 0.02 0.02 0.02 0.01 0.01 0.01 0.01 0.01 0.01 0.01 0.00 0.00 0.00 0.00 0.00 0.01 0.01 0.02 0.01 0.02 0.02 0.02 0.03 0.03 0.04 0.05 0.05 0.05
0.04 0.04 0.03 0.02 0.02 0.02 0.02 0.02 0.01 0.02 0.02 0.01 0.02 0.02 0.01 0.01 0.01 0.01 0.01 0.01 0.01 0.00 0.00 0.00 0.00 0.00 0.01 0.01 0.01 0.01 0.01 0.02 0.03 0.04 0.04 0.04 0.04 0.04
0.04 0.04 0.04 0.04 0.04 0.03 0.03 0.03 0.02 0.02 0.02 0.03 0.03 0.03 0.03 0.03 0.02 0.02 0.02 0.02 0.02 0.02 0.01 0.00 0.00 0.00 0.01 0.02 0.01 0.01 0.01 0.02 0.02 0.02 0.03 0.03 0.05 0.06
0.03 0.03 0.03 0.03 0.03 0.03 0.02 0.02 0.02 0.02 0.02 0.02 0.02 0.02 0.02 0.02 0.02 0.03 0.02 0.02 0.02 0.02 0.02 0.02 0.01 0.01 0.02 0.02 0.01 0.01 0.01 0.02 0.02 0.02 0.03 0.04 0.04 0.04
0.01 0.02 0.02 0.02 0.02 0.02 0.02 0.02 0.01 0.01 0.01 0.01 0.01 0.01 0.01 0.02 0.02 0.02 0.02 0.02 0.02 0.02 0.03 0.02 0.02 0.02 0.02 0.01 0.01 0.01 0.02 0.02 0.02 0.03 0.03 0.02 0.02 0.02
MSLP
1016.74 1016.87 1017.06 1017.28 1017.51 1017.68 1017.76 1017.72 1017.53 1017.21 1016.78 1016.27 1015.72 1015.19 1014.72 1014.33 1014.05 1013.87 1013.81 1013.85 1013.97 1014.15 1014.37 1014.60 1014.81 1014.98 1015.10 1015.15 1015.13 1015.05 1014.93 1014.77 1014.59 1014.42 1014.25 1014.08 1013.92 1013.74
1016.35 1016.45 1016.59 1016.79 1016.99 1017.18 1017.30 1017.31 1017.21 1016.98 1016.64 1016.21 1015.73 1015.23 1014.76 1014.35 1014.02 1013.78 1013.64 1013.61 1013.66 1013.78 1013.96 1014.16 1014.36 1014.55 1014.69 1014.78 1014.81 1014.78 1014.69 1014.57 1014.43 1014.27 1014.10 1013.92 1013.73 1013.52
1015.90 1015.96 1016.07 1016.23 1016.43 1016.61 1016.76 1016.83 1016.81 1016.68 1016.45 1016.13 1015.74 1015.32 1014.89 1014.49 1014.14 1013.85 1013.65 1013.54 1013.51 1013.56 1013.67 1013.83 1014.01 1014.18 1014.34 1014.45 1014.51 1014.52 1014.48 1014.40 1014.29 1014.15 1013.98 1013.80 1013.60 1013.37
1015.38 1015.43 1015.52 1015.66 1015.84 1016.03 1016.20 1016.32 1016.38 1016.35 1016.23 1016.03 1015.75 1015.42 1015.07 1014.70 1014.36 1014.05 1013.80 1013.62 1013.52 1013.49 1013.52 1013.62 1013.75 1013.89 1014.03 1014.15 1014.23 1014.27 1014.26 1014.21 1014.12 1014.00 1013.85 1013.67 1013.47 1013.24
1014.83 1014.88 1014.96 1015.09 1015.26 1015.45 1015.64 1015.81 1015.93 1015.99 1015.98 1015.89 1015.73 1015.51 1015.24 1014.94 1014.63 1014.32 1014.05 1013.82 1013.64 1013.53 1013.49 1013.50 1013.56 1013.66 1013.76 1013.87 1013.95 1013.99 1014.00 1013.97 1013.90 1013.79 1013.66 1013.49 1013.30 1013.08
1014.23 1014.30 1014.39 1014.52 1014.68 1014.88 1015.08 1015.28 1015.45 1015.58 1015.66 1015.68 1015.63 1015.51 1015.34 1015.12 1014.86 1014.59 1014.31 1014.05 1013.82 1013.64 1013.52 1013.46 1013.45 1013.48 1013.53 1013.60 1013.65 1013.69 1013.69 1013.67 1013.60 1013.51 1013.38 1013.23 1013.06 1012.87
1013.57 1013.67 1013.78 1013.92 1014.09 1014.28 1014.49 1014.70 1014.90 1015.08 1015.23 1015.33 1015.38 1015.37 1015.29 1015.16 1014.98 1014.75 1014.50 1014.24 1013.99 1013.76 1013.58 1013.45 1013.37 1013.33 1013.33 1013.35 1013.36 1013.37 1013.36 1013.32 1013.25 1013.15 1013.03 1012.90 1012.74 1012.58
1012.83 1012.95 1013.09 1013.25 1013.42 1013.61 1013.82 1014.03 1014.25 1014.46 1014.65 1014.81 1014.94 1015.02 1015.04 1015.00 1014.90 1014.75 1014.55 1014.31 1014.07 1013.83 1013.62 1013.45 1013.31 1013.22 1013.16 1013.13 1013.10 1013.07 1013.03 1012.96 1012.87 1012.77 1012.64 1012.51 1012.37 1012.23
1011.96 1012.13 1012.30 1012.47 1012.66 1012.85 1013.05 1013.25 1013.47 1013.68 1013.90 1014.11 1014.29 1014.45 1014.56 1014.62 1014.61 1014.55 1014.42 1014.24 1014.04 1013.82 1013.61 1013.42 1013.26 1013.14 1013.04 1012.96 1012.89 1012.82 1012.74 1012.64 1012.53 1012.40 1012.26 1012.11 1011.97 1011.84
1010.98 1011.18 1011.38 1011.58 1011.77 1011.97 1012.16 1012.35 1012.56 1012.78 1013.00 1013.24 1013.47 1013.69 1013.88 1014.03 1014.12 1014.15 1014.11 1014.01 1013.87 1013.71 1013.53 1013.36 1013.20 1013.07 1012.95 1012.85 1012.75 1012.65 1012.53 1012.40 1012.25 1012.09 1011.92 1011.75 1011.60 1011.46
1009.88 1010.12 1010.35 1010.58 1010.79 1010.99 1011.19 1011.38 1011.58 1011.79 1012.03 1012.28 1012.55 1012.82 1013.07 1013.30 1013.47 1013.59 1013.65 1013.64 1013.58 1013.49 1013.37 1013.25 1013.12 1013.01 1012.90 1012.80 1012.69 1012.56 1012.42 1012.26 1012.07 1011.87 1011.67 1011.47 1011.29 1011.13
1008.69 1008.97 1009.25 1009.51 1009.75 1009.98 1010.18 1010.38 1010.59 1010.81 1011.05 1011.32 1011.62 1011.92 1012.22 1012.50 1012.75 1012.94 1013.08 1013.16 1013.19 1013.17 1013.13 1013.07 1012.99 1012.92 1012.85 1012.76 1012.66 1012.54 1012.38 1012.20 1011.99 1011.76 1011.52 1011.29 1011.08 1010.90
1007.48 1007.80 1008.12 1008.43 1008.71 1008.97 1009.21 1009.44 1009.67 1009.90 1010.16 1010.45 1010.75 1011.08 1011.41 1011.72 1012.01 1012.25 1012.45 1012.60 1012.69 1012.75 1012.78 1012.79 1012.79 1012.78 1012.75 1012.70 1012.63 1012.53 1012.38 1012.20 1011.98 1011.74 1011.48 1011.23 1010.99 1010.78
1006.26 1006.63 1007.01 1007.37 1007.71 1008.02 1008.32 1008.59 1008.86 1009.13 1009.41 1009.71 1010.02 1010.35 1010.68 1011.00 1011.30 1011.56 1011.79 1011.97 1012.12 1012.24 1012.33 1012.41 1012.47 1012.53 1012.56 1012.57 1012.55 1012.48 1012.37 1012.21 1012.00 1011.76 1011.51 1011.25 1011.00 1010.78
1005.07 1005.50 1005.93 1006.36 1006.77 1007.15 1007.51 1007.85 1008.17 1008.49 1008.80 1009.11 1009.43 1009.75 1010.05 1010.35 1010.63 1010.87 1011.09 1011.29 1011.46 1011.61 1011.76 1011.90 1012.03 1012.15 1012.26 1012.33 1012.37 1012.36 1012.30 1012.18 1012.01 1011.80 1011.57 1011.32 1011.09 1010.87
1003.93 1004.40 1004.89 1005.39 1005.87 1006.34 1006.78 1007.20 1007.59 1007.96 1008.30 1008.63 1008.94 1009.23 1009.50 1009.75 1009.97 1010.18 1010.37 1010.54 1010.71 1010.89 1011.07 1011.27 1011.46 1011.65 1011.83 1011.98 1012.09 1012.14 1012.14 1012.08 1011.96 1011.80 1011.61 1011.41 1011.20 1011.00
1002.82 1003.33 1003.87 1004.43 1004.99 1005.55 1006.07 1006.58 1007.04 1007.46 1007.84 1008.18 1008.48 1008.73 1008.95 1009.14 1009.30 1009.45 1009.59 1009.74 1009.90 1010.09 1010.30 1010.54 1010.80 1011.06 1011.30 1011.53 1011.71 1011.83 1011.90 1011.90 1011.85 1011.75 1011.61 1011.46 1011.29 1011.13
1001.73 1002.26 1002.84 1003.46 1004.08 1004.71 1005.32 1005.90 1006.43 1006.91 1007.33 1007.68 1007.96 1008.19 1008.35 1008.47 1008.57 1008.66 1008.76 1008.88 1009.04 1009.24 1009.49 1009.78 1010.10 1010.42 1010.74 1011.03 1011.28 1011.46 1011.59 1011.65 1011.65 1011.61 1011.53 1011.43 1011.32 1011.20
1000.65 1001.19 1001.79 1002.43 1003.10 1003.78 1004.46 1005.11 1005.70 1006.23 1006.68 1007.05 1007.32 1007.51 1007.64 1007.71 1007.76 1007.81 1007.88 1008.00 1008.17 1008.40 1008.70 1009.05 1009.43 1009.83 1010.21 1010.56 1010.86 1011.09 1011.26 1011.36 1011.41 1011.40 1011.37 1011.32 1011.25 1011.18
999.59 1000.10 1000.68 1001.33 1002.02 1002.74 1003.46 1004.15 1004.80 1005.37 1005.85 1006.23 1006.50 1006.68 1006.78 1006.83 1006.86 1006.90 1006.98 1007.11 1007.33 1007.62 1007.98 1008.40 1008.86 1009.32 1009.76 1010.16 1010.50 1010.76 1010.94 1011.06 1011.12 1011.14 1011.14 1011.11 1011.09 1011.06
998.56 999.01 999.55 1000.17 1000.85 1001.57 1002.31 1003.03 1003.71 1004.31 1004.82 1005.21 1005.50 1005.68 1005.79 1005.85 1005.89 1005.95 1006.07 1006.26 1006.54 1006.91 1007.36 1007.87 1008.41 1008.94 1009.43 1009.87 1010.22 1010.48 1010.67 1010.77 1010.83 1010.84 1010.84 1010.84 1010.84 1010.85
997.56 997.94 998.41 998.97 999.61 1000.31 1001.04 1001.77 1002.47 1003.09 1003.61 1004.03 1004.34 1004.55 1004.69 1004.78 1004.87 1005.00 1005.18 1005.46 1005.84 1006.31 1006.86 1007.46 1008.08 1008.67 1009.21 1009.67 1010.02 1010.28 1010.43 1010.51 1010.54 1010.53 1010.52 1010.52 1010.54 1010.59
996.61 996.90 997.28 997.76 998.35 999.00 999.71 1000.43 1001.12 1001.75 1002.30 1002.75 1003.09 1003.34 1003.53 1003.69 1003.86 1004.06 1004.35 1004.73 1005.22 1005.80 1006.45 1007.15 1007.84 1008.49 1009.06 1009.53 1009.88 1010.11 1010.24 1010.28 1010.27 1010.24 1010.21 1010.21 1010.26 1010.34
Thickness
5750 5749 5747 5746 5745 5742 5738 5732 5722 5712 5709 5711 5711 5711 5709 5706 5703 5700 5697 5695 5692 5690 5688 5686 5684 5683 5681 5680 5679 5677 5676 5675 5674 5673 5672 5670 5669 5668
5748 5745 5744 5743 5742 5740 5737 5733 5729 5720 5711 5710 5709 5708 5706 5703 5699 5696 5693 5690 5687 5685 5682 5680 5678 5676 5674 5672 5671 5670 5668 5667 5665 5664 5663 5662 5660 5660
5745 5743 5740 5739 5737 5736 5734 5731 5727 5721 5711 5707 5707 5705 5702 5698 5694 5692 5688 5685 5682 5680 5677 5675 5673 5670 5668 5666 5664 5663 5661 5659 5658 5656 5654 5653 5652 5651
5741 5739 5737 5736 5733 5731 5729 5726 5723 5721 5713 5704 5702 5700 5697 5695 5691 5688 5685 5681 5679 5675 5672 5670 5667 5665 5662 5660 5658 5656 5654 5652 5650 5648 5646 5645 5643 5642
5738 5735 5733 5731 5728 5727 5724 5722 5719 5717 5713 5705 5699 5697 5693 5691 5687 5684 5681 5678 5675 5672 5668 5665 5662 5659 5657 5654 5651 5649 5647 5644 5643 5640 5638 5636 5634 5632
5735 5732 5730 5727 5724 5723 5720 5717 5714 5711 5707 5702 5696 5692 5688 5686 5682 5677 5674 5672 5670 5668 5664 5661 5657 5654 5651 5648 5645 5642 5640 5637 5634 5632 5630 5627 5625 5623
5731 5728 5726 5723 5721 5718 5716 5712 5709 5705 5701 5696 5691 5687 5682 5679 5676 5674 5669 5666 5664 5662 5658 5655 5652 5648 5645 5642 5639 5636 5633 5630 5627 5624 5622 5619 5616 5613
5726 5724 5722 5720 5716 5713 5711 5708 5704 5700 5695 5691 5687 5682 5678 5675 5672 5670 5665 5660 5656 5656 5654 5650 5648 5644 5641 5637 5633 5630 5627 5624 5620 5617 5614 5610 5607 5604
5722 5719 5719 5716 5713 5710 5706 5702 5699 5696 5693 5689 5683 5679 5675 5672 5668 5664 5660 5656 5652 5651 5649 5645 5643 5640 5637 5633 5629 5624 5621 5617 5614 5610 5607 5603 5599 5596
5717 5714 5711 5708 5706 5703 5701 5697 5693 5690 5688 5684 5680 5676 5673 5669 5665 5660 5656 5652 5650 5647 5644 5638 5637 5634 5632 5627 5622 5618 5614 5610 5606 5602 5599 5595 5592 5589
5713 5709 5706 5703 5700 5698 5695 5690 5687 5684 5681 5678 5675 5671 5668 5664 5659 5655 5651 5646 5641 5639 5637 5632 5629 5626 5623 5619 5615 5611 5607 5603 5599 5594 5591 5587 5584 5581
5707 5704 5700 5697 5693 5691 5688 5685 5680 5677 5675 5671 5667 5664 5661 5657 5653 5648 5644 5639 5635 5632 5630 5626 5622 5618 5613 5612 5608 5604 5599 5595 5591 5587 5583 5580 5576 5572
5702 5699 5694 5690 5687 5685 5682 5679 5674 5671 5669 5666 5662 5658 5655 5651 5647 5643 5639 5634 5629 5625 5624 5620 5615 5611 5607 5603 5601 5598 5594 5589 5585 5581 5577 5573 5569 5565
5697 5694 5689 5684 5681 5678 5675 5672 5669 5666 5663 5660 5656 5651 5647 5644 5640 5636 5633 5629 5625 5620 5617 5613 5608 5603 5599 5595 5591 5589 5587 5583 5580 5575 5571 5567 5562 5559
5689 5686 5682 5678 5674 5672 5669 5666 5663 5660 5657 5653 5648 5645 5642 5638 5635 5631 5627 5623 5619 5615 5611 5606 5602 5597 5593 5588 5585 5581 5578 5576 5573 5570 5566 5562 5558 5554
5680 5677 5674 5671 5667 5664 5662 5659 5657 5654 5650 5646 5643 5639 5636 5632 5628 5624 5620 5615 5610 5606 5603 5599 5595 5591 5586 5582 5579 5575 5572 5569 5566 5563 5560 5557 5554 5550
5671 5669 5667 5664 5660 5659 5656 5653 5650 5646 5642 5639 5636 5631 5628 5625 5620 5617 5612 5607 5602 5597 5593 5591 5588 5584 5580 5576 5571 5568 5566 5563 5560 5557 5553 5551 5549 5546
5664 5662 5660 5658 5655 5652 5649 5645 5641 5638 5635 5631 5628 5624 5620 5616 5613 5609 5604 5600 5595 5591 5587 5583 5579 5575 5572 5569 5566 5562 5559 5556 5553 5550 5547 5544 5542 5541
5657 5656 5653 5650 5648 5645 5642 5638 5634 5630 5627 5623 5620 5616 5612 5609 5604 5600 5596 5592 5588 5584 5580 5576 5572 5567 5562 5559 5559 5556 5553 5550 5547 5544 5541 5539 5536 5535
5651 5650 5647 5644 5640 5637 5633 5630 5626 5622 5619 5616 5613 5609 5605 5601 5596 5592 5588 5584 5580 5577 5573 5570 5565 5561 5556 5553 5551 5550 5548 5545 5541 5537 5535 5533 5531 5529
5646 5644 5641 5637 5633 5629 5625 5622 5618 5614 5611 5607 5604 5601 5597 5593 5588 5585 5581 5576 5572 5569 5565 5562 5559 5556 5553 5550 5546 5544 5542 5539 5536 5532 5529 5526 5524 5522
5640 5637 5634 5630 5626 5621 5618 5614 5610 5607 5603 5599 5596 5593 5590 5586 5581 5577 5574 5570 5566 5563 5559 5556 5554 5551 5547 5543 5540 5538 5536 5533 5530 5527 5524 5521 5517 5515
5633 5630 5626 5622 5618 5614 5610 5607 5603 5600 5596 5593 5589 5586 5583 5579 5575 5572 5568 5565 5561 5557 5553 5549 5547 5544 5542 5539 5535 5533 5531 5528 5525 5521 5518 5516 5514 5511